Flag for Canada Weather past 2 weeks in Chilliwack, British Columbia, Canada

Now
46 °F

Cool.


Feels Like: 46 °F
Forecast: 42 / 53 °F
Wind: 2 mph from Northwest

Location: Agassiz


UV Index: 0 (Low)

Visibility: N/A


Pressure: 29.88 "Hg

Humidity: 82%

Dew point: 40 °F

Location of ChilliwackLocation

Historic Weather in Chilliwack

°F

Chilliwack temperature yesterday

Maximum temperature yesterday: 53 °F (at 12:00 PM)
Minimum temperature yesterday: 46 °F (at 5:00 AM)
Average temperature yesterday: 50 °F

Past Weeks' High & Low Weather Summary

 TemperatureHumidityPressure
High68 °F (Apr 13, 4:00 PM)100% (Apr 5, 4:00 AM)30.36 "Hg (Apr 5, 4:00 AM)
Low37 °F (Apr 10, 5:00 AM)19% (Apr 13, 5:00 PM)29.68 "Hg (Apr 17, 8:00 PM)
Average51 °F73%30.08 "Hg
* Reported Apr 3 2:00 AM — Apr 18 2:00 AM, Chilliwack, Weather by CustomWeather, © 2014

Note: Actual official high and low records may vary slightly from our data, if they occured in-between our weather recording intervals... More about our weather records

Advertising

Historic Weather Conditions — Data for Previous 24 hours

 ConditionsComfort  
Time TempWeatherWind HumidityBarometerVisibility
2:00 AM
Apr 18
46 °FCool.6 mph82%29.86 "HgN/A
1:00 AM46 °FCool.3 mph83%29.84 "HgN/A
12:00 AM46 °FCool.5 mph84%29.82 "HgN/A
11:00 PM
Apr 17
46 °FCool.9 mph85%29.81 "HgN/A
10:00 PM47 °FCool.6 mph86%29.76 "HgN/A
9:00 PM49 °FCool.2 mph95%29.70 "HgN/A
8:00 PM50 °FCool.No wind97%29.68 "HgN/A
7:00 PM51 °FCool.No wind94%29.69 "HgN/A
6:00 PM52 °FCool.1 mph86%29.70 "HgN/A
5:00 PM53 °FCool.2 mph86%29.71 "HgN/A
4:00 PM53 °FCool.2 mph84%29.73 "HgN/A
3:00 PM53 °FCool.1 mph82%29.75 "HgN/A
2:00 PM52 °FCool.3 mph78%29.77 "HgN/A
1:00 PM52 °FCool.No wind80%29.78 "HgN/A
12:00 PM53 °FCool.1 mph74%29.80 "HgN/A
11:00 AM52 °FCool.1 mph81%29.81 "HgN/A
10:00 AM50 °FCool.2 mph86%29.82 "HgN/A
9:00 AM49 °FCool.1 mph88%29.83 "HgN/A
8:00 AM48 °FCool.1 mph98%29.84 "HgN/A
7:00 AM47 °FCool.2 mph99%29.84 "HgN/A
6:00 AM47 °FCool.No wind99%29.83 "HgN/A
5:00 AM46 °FCool.1 mph100%29.83 "HgN/A
4:00 AM47 °FCool.2 mph98%29.85 "HgN/A
3:00 AM48 °FCool.2 mph92%29.85 "HgN/A
Weather by CustomWeather, © 2014

See weather overview